TimeCDT,TemperatureF,Dew PointF,Humidity,Sea Level PressureIn,VisibilityMPH,Wind Direction,Wind SpeedMPH,Gust SpeedMPH,PrecipitationIn,Events,Conditions,WindDirDegrees,DateUTC
12:15 AM,71.6,68.0,88,30.13,2.5,Calm,Calm,-,N/A,,Clear,0,2013-09-11 05:15:00
12:35 AM,71.6,66.2,83,30.13,3.0,Calm,Calm,-,N/A,,Clear,0,2013-09-11 05:35:00
12:55 AM,71.6,68.0,88,30.14,2.5,NNE,3.5,-,N/A,,Clear,20,2013-09-11 05:55:00
1:15 AM,69.8,66.2,88,30.13,3.0,Calm,Calm,-,N/A,,Clear,0,2013-09-11 06:15:00
1:35 AM,69.8,66.2,88,30.13,1.8,Calm,Calm,-,N/A,,Clear,0,2013-09-11 06:35:00
1:55 AM,69.8,66.2,88,30.13,1.2,Calm,Calm,-,N/A,,Clear,0,2013-09-11 06:55:00
2:15 AM,69.8,66.2,88,30.12,1.0,North,3.5,-,N/A,,Clear,10,2013-09-11 07:15:00
2:35 AM,69.8,66.2,88,30.12,2.0,North,3.5,-,N/A,,Clear,360,2013-09-11 07:35:00
2:55 AM,69.8,66.2,88,30.12,2.0,North,-9999.0,-,N/A,,Clear,0,2013-09-11 07:55:00
3:15 AM,69.8,66.2,88,30.12,2.5,North,3.5,-,N/A,,Clear,360,2013-09-11 08:15:00
3:35 AM,69.8,66.2,88,30.12,1.2,Calm,Calm,-,N/A,,Clear,0,2013-09-11 08:35:00
3:55 AM,68.0,64.4,88,30.12,2.0,Calm,Calm,-,N/A,,Clear,0,2013-09-11 08:55:00
4:15 AM,69.8,66.2,88,30.13,2.5,North,4.6,-,N/A,,Clear,10,2013-09-11 09:15:00
4:35 AM,69.8,66.2,88,30.13,2.0,NNE,3.5,-,N/A,,Clear,20,2013-09-11 09:35:00
4:55 AM,69.8,66.2,88,30.13,1.0,NNE,3.5,-,N/A,,Mostly Cloudy,20,2013-09-11 09:55:00
5:15 AM,69.8,66.2,88,30.14,1.0,NNE,3.5,-,N/A,,Mostly Cloudy,20,2013-09-11 10:15:00
5:35 AM,69.8,66.2,88,30.14,1.8,North,3.5,-,N/A,,Clear,10,2013-09-11 10:35:00
5:55 AM,69.8,66.2,88,30.14,2.0,Calm,Calm,-,N/A,,Clear,0,2013-09-11 10:55:00
6:15 AM,69.8,66.2,88,30.15,2.5,NNE,3.5,-,N/A,,Clear,20,2013-09-11 11:15:00
6:35 AM,69.8,66.2,88,30.15,2.0,NNE,3.5,-,N/A,,Clear,30,2013-09-11 11:35:00
6:55 AM,69.8,66.2,88,30.15,1.5,NNE,4.6,-,N/A,,Clear,20,2013-09-11 11:55:00
7:15 AM,69.8,66.2,88,30.16,2.5,NNE,3.5,-,N/A,,Clear,30,2013-09-11 12:15:00
7:35 AM,71.6,68.0,88,30.16,3.0,NE,3.5,-,N/A,,Clear,40,2013-09-11 12:35:00
7:55 AM,73.4,68.0,83,30.16,3.0,NNE,4.6,-,N/A,,Clear,30,2013-09-11 12:55:00
8:15 AM,73.4,69.8,88,30.17,5.0,NNE,4.6,-,N/A,,Clear,30,2013-09-11 13:15:00
8:35 AM,75.2,69.8,83,30.17,8.0,NE,4.6,-,N/A,,Clear,40,2013-09-11 13:35:00
8:55 AM,77.0,69.8,78,30.17,10.0,NE,5.8,-,N/A,,Clear,40,2013-09-11 13:55:00
9:15 AM,78.8,69.8,74,30.17,10.0,ENE,6.9,-,N/A,,Clear,60,2013-09-11 14:15:00
9:35 AM,80.6,71.6,74,30.17,10.0,ENE,6.9,-,N/A,,Clear,60,2013-09-11 14:35:00
9:55 AM,82.4,69.8,66,30.18,10.0,ENE,8.1,-,N/A,,Clear,70,2013-09-11 14:55:00
10:15 AM,82.4,69.8,66,30.17,10.0,ENE,8.1,-,N/A,,Clear,60,2013-09-11 15:15:00
10:35 AM,84.2,69.8,62,30.17,-9999.0,East,6.9,-,N/A,,Clear,80,2013-09-11 15:35:00
10:55 AM,84.2,69.8,62,30.17,10.0,ESE,8.1,-,N/A,,Clear,110,2013-09-11 15:55:00
11:15 AM,86.0,69.8,58,30.17,10.0,ENE,10.4,-,N/A,,Clear,70,2013-09-11 16:15:00
11:35 AM,87.8,69.8,55,30.17,10.0,ENE,5.8,-,N/A,,Clear,60,2013-09-11 16:35:00
11:55 AM,87.8,69.8,55,30.17,10.0,ESE,5.8,-,N/A,,Partly Cloudy,110,2013-09-11 16:55:00
12:15 PM,87.8,69.8,55,30.16,10.0,ENE,3.5,-,N/A,,Partly Cloudy,60,2013-09-11 17:15:00
12:35 PM,87.8,68.0,52,30.16,10.0,Calm,Calm,-,N/A,,Clear,0,2013-09-11 17:35:00
12:55 PM,87.8,68.0,52,30.15,10.0,NE,8.1,-,N/A,,Partly Cloudy,40,2013-09-11 17:55:00
1:15 PM,89.6,69.8,52,30.14,10.0,NE,4.6,-,N/A,,Scattered Clouds,40,2013-09-11 18:15:00
1:35 PM,89.6,68.0,49,30.14,10.0,NE,9.2,-,N/A,,Partly Cloudy,50,2013-09-11 18:35:00
1:55 PM,89.6,68.0,49,30.13,10.0,NE,8.1,-,N/A,,Partly Cloudy,40,2013-09-11 18:55:00
2:15 PM,89.6,68.0,49,30.12,10.0,NE,8.1,-,N/A,,Scattered Clouds,50,2013-09-11 19:15:00
2:35 PM,89.6,68.0,49,30.11,10.0,ENE,8.1,-,N/A,,Scattered Clouds,60,2013-09-11 19:35:00
2:55 PM,89.6,68.0,49,30.11,10.0,East,8.1,-,N/A,,Mostly Cloudy,80,2013-09-11 19:55:00
3:15 PM,89.6,68.0,49,30.10,10.0,East,6.9,-,N/A,,Scattered Clouds,90,2013-09-11 20:15:00
3:35 PM,91.4,68.0,46,30.10,10.0,East,10.4,-,N/A,,Scattered Clouds,80,2013-09-11 20:35:00
3:55 PM,89.6,68.0,49,30.09,10.0,ENE,4.6,-,N/A,,Partly Cloudy,60,2013-09-11 20:55:00
4:15 PM,91.4,68.0,46,30.08,10.0,ENE,9.2,-,N/A,,Clear,60,2013-09-11 21:15:00
4:35 PM,89.6,66.2,46,30.08,10.0,ESE,8.1,-,N/A,,Partly Cloudy,120,2013-09-11 21:35:00
4:55 PM,89.6,66.2,46,30.08,10.0,SE,6.9,-,N/A,,Scattered Clouds,130,2013-09-11 21:55:00
5:15 PM,89.6,66.2,46,30.08,10.0,East,9.2,-,N/A,,Partly Cloudy,100,2013-09-11 22:15:00
5:35 PM,89.6,66.2,46,30.08,10.0,ESE,6.9,-,N/A,,Clear,110,2013-09-11 22:35:00
5:55 PM,89.6,66.2,46,30.08,10.0,East,5.8,-,N/A,,Clear,100,2013-09-11 22:55:00
6:15 PM,87.8,66.2,49,30.07,10.0,East,5.8,-,N/A,,Clear,100,2013-09-11 23:15:00
6:35 PM,87.8,66.2,49,30.07,10.0,East,3.5,-,N/A,,Clear,100,2013-09-11 23:35:00
6:55 PM,86.0,66.2,51,30.07,10.0,East,3.5,-,N/A,,Partly Cloudy,80,2013-09-11 23:55:00
7:15 PM,82.4,69.8,66,30.07,10.0,Calm,Calm,-,N/A,,Clear,0,2013-09-12 00:15:00
7:35 PM,80.6,69.8,70,30.08,10.0,Calm,Calm,-,N/A,,Partly Cloudy,0,2013-09-12 00:35:00
7:55 PM,78.8,69.8,74,30.08,10.0,Calm,Calm,-,N/A,,Clear,0,2013-09-12 00:55:00
8:15 PM,75.2,69.8,83,30.09,10.0,Calm,Calm,-,N/A,,Clear,0,2013-09-12 01:15:00
8:35 PM,75.2,69.8,83,30.09,10.0,Calm,Calm,-,N/A,,Clear,0,2013-09-12 01:35:00
8:55 PM,75.2,69.8,83,30.09,10.0,Calm,Calm,-,N/A,,Clear,0,2013-09-12 01:55:00
9:15 PM,73.4,68.0,83,30.10,10.0,Calm,Calm,-,N/A,,Clear,0,2013-09-12 02:15:00
9:35 PM,75.2,68.0,78,30.10,10.0,Calm,Calm,-,N/A,,Clear,0,2013-09-12 02:35:00
9:55 PM,73.4,68.0,83,30.11,10.0,NNE,4.6,-,N/A,,Clear,30,2013-09-12 02:55:00
10:15 PM,73.4,66.2,78,30.11,10.0,North,3.5,-,N/A,,Clear,10,2013-09-12 03:15:00
10:35 PM,73.4,66.2,78,30.10,10.0,Calm,Calm,-,N/A,,Clear,0,2013-09-12 03:35:00
10:55 PM,73.4,66.2,78,30.10,10.0,Calm,Calm,-,N/A,,Clear,0,2013-09-12 03:55:00
11:15 PM,71.6,66.2,83,30.10,10.0,Calm,Calm,-,N/A,,Clear,0,2013-09-12 04:15:00
11:35 PM,71.6,66.2,83,30.09,9.0,SSW,6.9,-,N/A,,Clear,200,2013-09-12 04:35:00
11:55 PM,71.6,66.2,83,30.09,10.0,Calm,Calm,-,N/A,,Clear,0,2013-09-12 04:55:00